[[{"header":{"parameterUnit":"m.s-1","parameterCategory":1,"la1":30.2991,"la2":30.254,"lo1":-89.0895,"lo2":-89.0444,"dy":0.0017,"dx":0.0017,"nx":28,"ny":28,"refTime":"2024-08-25T21:00:00:Z","depth":0,"parameterNumber":2,"parameterNumberName":"U-component_of_WINDS"},"data":[0,0,0,0,0,0,0,0,0,0,0,0,0,0,0,0,0,0,0,0,0,0,0,0,0,0,0,0,0,0,0,0,0,0,0,0,0,0,0,0,0,0,0,0,0,0,0,0,0,0,0,0,0,0,0,0,0,0,-0.8359,-0.8358,0,-0.8275,-0.8274,-0.8273,-0.8239,-0.8239,-0.8239,-0.8239,-0.8153,-0.8151,-0.8148,0,0,0,0,0,0,0,0,0,0,0,0,0,-0.8495,-0.8493,-0.8359,-0.8358,-0.8357,-0.8275,-0.8274,-0.8272,-0.8239,-0.8239,-0.8239,-0.8239,-0.8154,-0.8151,-0.8148,0,0,0,0,0,0,0,0,0,0,0,0,0,-0.8426,-0.8492,-0.836,-0.833,-0.8327,-0.8275,-0.8274,-0.8272,-0.8239,-0.8239,-0.8239,-0.8239,-0.8155,-0.8151,-0.8148,-0.8119,0,0,-0.8136,-0.8135,0,0,0,0,0,0,0,0,-0.843,-0.8421,-0.8336,-0.8332,-0.8328,-0.8267,-0.829,-0.8221,-0.8238,-0.8272,-0.8239,-0.824,-0.8191,-0.8184,-0.8168,-0.8115,-0.8111,-0.8136,-0.8134,-0.8132,-0.8131,0,0,0,0,0,0,0,-0.8435,-0.8425,-0.8326,-0.8335,-0.833,-0.8323,-0.8313,-0.8277,-0.8231,-0.8269,-0.8267,-0.8257,-0.8189,-0.8172,-0.8166,-0.811,-0.8136,-0.8133,-0.8131,-0.8129,-0.8033,-0.8032,0,0,0,0,0,0,-0.8444,-0.8429,-0.8329,-0.8323,-0.8381,-0.832,-0.8309,-0.8287,-0.8231,-0.8223,-0.8257,-0.8256,-0.8178,-0.817,-0.8162,-0.8127,-0.8132,-0.8129,-0.8127,-0.8033,-0.8033,-0.8032,0,0,0,0,0,0,-0.8447,-0.8436,-0.8332,-0.8375,-0.8362,-0.8317,-0.8292,-0.8285,-0.8267,-0.8222,-0.8214,-0.8247,-0.8178,-0.8168,-0.8131,-0.8123,-0.8127,-0.8124,-0.8033,-0.8033,-0.8032,-0.8055,0,0,0,0,0,0,-0.8451,-0.8437,-0.8424,-0.8375,-0.8359,-0.8301,-0.8292,-0.8283,-0.8261,-0.8259,-0.8211,-0.8203,-0.8177,-0.8136,-0.8127,-0.8118,-0.8121,-0.8034,-0.8033,-0.8033,-0.8054,-0.8055,-0.8056,0,0,0,0,0,-0.8456,-0.8433,-0.8424,-0.8412,-0.8343,-0.83,-0.8291,-0.8262,-0.826,-0.8248,-0.822,-0.8204,-0.8126,-0.8133,-0.8122,-0.8112,-0.8034,-0.8033,-0.8033,-0.8054,-0.8055,-0.8056,0,0,0,0,0,0,-0.8482,-0.8426,-0.8415,-0.8375,-0.8343,-0.8294,-0.8278,-0.8263,-0.823,-0.8229,-0.8195,-0.8184,-0.8151,-0.8128,-0.8137,-0.8083,-0.8079,-0.8076,-0.8099,-0.81,-0.81,-0.8106,-0.8118,0,0,0,0,0,-0.8483,-0.8453,-0.8406,-0.8376,-0.836,-0.8322,-0.8302,-0.8283,-0.8248,-0.8234,-0.8202,-0.817,-0.8138,-0.8117,-0.8085,-0.8051,-0.8042,-0.804,-0.804,-0.8041,-0.8039,-0.8022,-0.8021,-0.803,-0.803,-0.803,0,0,-0.8485,-0.8451,-0.8433,-0.838,-0.8352,-0.8323,-0.831,-0.8279,-0.8257,-0.8229,-0.8192,-0.8169,-0.813,-0.8095,-0.8078,-0.8075,-0.8035,-0.804,-0.8041,-0.8038,-0.8021,-0.802,-0.802,-0.8029,-0.8029,-0.8029,0,0,-0.8473,-0.8444,-0.8417,-0.839,-0.8349,-0.8324,-0.8318,-0.8273,-0.8256,-0.8219,-0.8198,-0.8173,-0.8118,-0.8092,-0.8072,-0.8055,-0.804,-0.8046,-0.8048,-0.8032,-0.8032,-0.8031,-0.8027,-0.8025,-0.8044,-0.8044,-0.8044,0,-0.8481,-0.8435,-0.8404,-0.8375,-0.8353,-0.8327,-0.8301,-0.8277,-0.8227,-0.8214,-0.8211,-0.8144,-0.8116,-0.8076,-0.8072,-0.8056,-0.8049,-0.805,-0.8034,-0.8033,-0.8032,-0.8028,-0.8026,-0.8045,-0.8045,-0.8044,-0.8044,0,-0.8447,-0.8416,-0.8399,-0.8353,-0.8329,-0.8301,-0.8269,-0.8249,-0.8232,-0.8209,-0.8173,-0.8139,-0.8102,-0.8091,-0.8074,-0.805,-0.8049,-0.8041,-0.8036,-0.8033,-0.8028,-0.8026,-0.8046,-0.8046,-0.8045,-0.8045,0,0,-0.8447,-0.8387,-0.8382,-0.8362,-0.8316,-0.8292,-0.8264,-0.8228,-0.8212,-0.818,-0.8157,-0.8114,-0.8107,-0.8084,-0.8064,-0.805,-0.8042,-0.8044,-0.8043,-0.8046,-0.8016,-0.8023,-0.8021,-0.8033,-0.8032,-0.8032,-0.802,0,-0.843,-0.8379,-0.8353,-0.8313,-0.8285,-0.8262,-0.8238,-0.8209,-0.8187,-0.8162,-0.8138,-0.8108,-0.81,-0.8087,-0.8072,-0.8046,-0.8036,-0.8047,-0.8012,-0.8011,-0.8023,-0.8018,-0.8024,-0.8014,-0.8017,-0.8017,-0.8017,0,-0.8403,-0.8372,-0.833,-0.8291,-0.8278,-0.8257,-0.8223,-0.8198,-0.8166,-0.8151,-0.8128,-0.8109,-0.8081,-0.808,-0.8042,-0.805,-0.8035,-0.8021,-0.802,-0.8015,-0.8014,-0.8015,-0.801,-0.8009,-0.8013,-0.8013,-0.8014,0,-0.841,-0.8358,-0.8326,-0.831,-0.8263,-0.8249,-0.8229,-0.8196,-0.8177,-0.8148,-0.8136,-0.8104,-0.8086,-0.8063,-0.8037,-0.8038,-0.8003,-0.7998,-0.7992,-0.7992,-0.7985,-0.7985,-0.7979,-0.7974,-0.7974,-0.7974,-0.7974,0,-0.8394,-0.8369,-0.8329,-0.831,-0.8283,-0.8254,-0.8228,-0.8206,-0.8179,-0.8156,-0.8134,-0.8114,-0.8081,-0.8057,-0.8037,-0.8011,-0.8003,-0.7991,-0.7987,-0.7993,-0.7995,-0.7983,-0.7983,-0.7974,-0.7974,-0.7974,-0.7974,0,-0.8396,-0.8367,-0.8332,-0.8291,-0.8281,-0.8263,-0.8228,-0.821,-0.8189,-0.8161,-0.8152,-0.8119,-0.809,-0.8062,-0.8023,-0.801,-0.7984,-0.7977,-0.7995,-0.7992,-0.7988,-0.7989,-0.7973,-0.797,-0.7967,-0.7967,-0.7967,0,-0.8388,-0.8369,-0.8326,-0.831,-0.829,-0.8264,-0.8245,-0.8217,-0.8198,-0.8161,-0.8148,-0.8118,-0.8092,-0.8047,-0.802,-0.7991,-0.7984,-0.7981,-0.7979,-0.7988,-0.7985,-0.7987,-0.7986,-0.7981,-0.7981,-0.7981,-0.7982,0,-0.8377,-0.8365,-0.8338,-0.8307,-0.8284,-0.8258,-0.8232,-0.822,-0.8187,-0.8168,-0.8138,-0.8118,-0.808,-0.8051,-0.802,-0.8,-0.7986,-0.7982,-0.798,-0.7986,-0.7998,-0.7993,-0.7998,-0.7983,-0.7982,-0.7982,-0.7982,-0.7982,-0.8375,-0.8358,-0.8326,-0.8297,-0.8275,-0.8251,-0.8233,-0.821,-0.8184,-0.8151,-0.8136,-0.8107,-0.8078,-0.8035,-0.8016,-0.7994,-0.7991,-0.7986,-0.7985,-0.7984,-0.7987,-0.8002,-0.7988,-0.7988,-0.7988,-0.7988,-0.7988,0,-0.8364,-0.8343,-0.8317,-0.8281,-0.826,-0.8248,-0.8219,-0.8202,-0.8177,-0.8151,-0.8126,-0.8094,-0.8067,-0.8039,-0.801,-0.7998,-0.7991,-0.7992,-0.7993,-0.7989,-0.799,-0.7996,-0.7998,-0.7998,-0.7998,-0.7998,-0.7998,-0.7998,-0.8356,-0.8327,-0.8312,-0.8273,-0.8252,-0.8223,-0.8208,-0.8187,-0.8167,-0.8132,-0.8109,-0.8091,-0.8065,-0.8035,-0.801,-0.8003,-0.7994,-0.7996,-0.7987,-0.7989,-0.7988,-0.7988,-0.7993,-0.7994,-0.7994,-0.7987,-0.7987,-0.7987]},{"header":{"parameterUnit":"m.s-1","parameterCategory":1,"la1":30.2991,"la2":30.254,"lo1":-89.0895,"lo2":-89.0444,"dy":0.0017,"dx":0.0017,"nx":28,"ny":28,"refTime":"2024-08-25T21:00:00:Z","depth":0,"parameterNumber":3,"parameterNumberName":"V-component_of_WINDS"},"data":[0,0,0,0,0,0,0,0,0,0,0,0,0,0,0,0,0,0,0,0,0,0,0,0,0,0,0,0,0,0,0,0,0,0,0,0,0,0,0,0,0,0,0,0,0,0,0,0,0,0,0,0,0,0,0,0,0,0,1.9136,1.9136,0,1.9114,1.9113,1.9113,1.9064,1.9063,1.9062,1.9061,1.9036,1.9036,1.9036,0,0,0,0,0,0,0,0,0,0,0,0,0,1.9134,1.9134,1.9136,1.9136,1.9136,1.9114,1.9113,1.9113,1.9064,1.9063,1.9062,1.906,1.9036,1.9036,1.9036,0,0,0,0,0,0,0,0,0,0,0,0,0,1.9125,1.9134,1.9136,1.9109,1.9106,1.9114,1.9113,1.9113,1.9064,1.9063,1.9061,1.906,1.9036,1.9036,1.9036,1.9068,0,0,1.9038,1.9038,0,0,0,0,0,0,0,0,1.9126,1.9126,1.9113,1.9111,1.9108,1.909,1.9103,1.9098,1.9065,1.908,1.9061,1.9059,1.9055,1.9054,1.9053,1.9067,1.9066,1.9038,1.9038,1.9038,1.9038,0,0,0,0,0,0,0,1.9127,1.9126,1.9127,1.9113,1.911,1.9096,1.9093,1.9102,1.9076,1.9079,1.9075,1.9073,1.9053,1.9052,1.9052,1.9066,1.9038,1.9038,1.9038,1.9038,1.9101,1.9103,0,0,0,0,0,0,1.9132,1.9127,1.9128,1.9126,1.9113,1.9098,1.9094,1.9097,1.9076,1.9071,1.9074,1.9071,1.9052,1.9051,1.9051,1.9083,1.9038,1.9038,1.9039,1.91,1.9102,1.9103,0,0,0,0,0,0,1.9132,1.9132,1.9129,1.9126,1.9124,1.9099,1.9103,1.9097,1.9096,1.9073,1.9067,1.9078,1.9051,1.905,1.9063,1.9082,1.9038,1.9039,1.9098,1.91,1.9102,1.9151,0,0,0,0,0,0,1.9132,1.9132,1.9145,1.9126,1.9125,1.9143,1.9104,1.9098,1.9098,1.9093,1.9075,1.9071,1.905,1.9063,1.9064,1.9081,1.9039,1.9096,1.9099,1.9102,1.9148,1.9155,1.9161,0,0,0,0,0,1.9132,1.916,1.9146,1.9147,1.914,1.9145,1.9143,1.9119,1.9099,1.9111,1.9095,1.9071,1.908,1.9065,1.9065,1.9083,1.9095,1.9098,1.9102,1.9145,1.9153,1.916,0,0,0,0,0,0,1.9182,1.9157,1.9141,1.9165,1.9157,1.9136,1.915,1.913,1.9127,1.9123,1.9093,1.9089,1.9106,1.9096,1.908,1.9111,1.9084,1.9087,1.9116,1.9124,1.9131,1.9131,1.9039,0,0,0,0,0,1.9196,1.9202,1.918,1.9203,1.92,1.9176,1.9177,1.9159,1.915,1.9146,1.9131,1.9122,1.9122,1.9123,1.9123,1.9147,1.914,1.9159,1.9166,1.9171,1.9173,1.9182,1.9189,1.9114,1.9114,1.9114,0,0,1.9224,1.9211,1.9217,1.9212,1.9204,1.9209,1.9173,1.9182,1.9185,1.9147,1.9158,1.9147,1.9135,1.9153,1.916,1.9145,1.9193,1.9175,1.918,1.9179,1.9186,1.9193,1.9199,1.9116,1.9116,1.9115,0,0,1.9277,1.927,1.9286,1.9279,1.9267,1.9251,1.9255,1.9237,1.9228,1.9239,1.9209,1.9212,1.9215,1.9206,1.9202,1.9251,1.9227,1.9251,1.9284,1.9292,1.9298,1.9303,1.9317,1.9322,1.9254,1.9255,1.9255,0,1.9313,1.9321,1.9297,1.9306,1.9303,1.927,1.9285,1.9279,1.9267,1.9265,1.925,1.925,1.924,1.9253,1.9265,1.9264,1.9265,1.9252,1.93,1.9304,1.9308,1.9321,1.9327,1.9257,1.9257,1.9257,1.9256,0,1.9364,1.937,1.9385,1.9374,1.9373,1.9385,1.9361,1.9363,1.9345,1.933,1.934,1.9327,1.9321,1.9324,1.9307,1.9334,1.9325,1.9305,1.9276,1.9319,1.933,1.9335,1.9261,1.926,1.9259,1.9259,0,0,1.9447,1.9422,1.9427,1.942,1.9404,1.9408,1.9418,1.9412,1.9413,1.9406,1.9411,1.9414,1.9394,1.939,1.9372,1.938,1.9414,1.9358,1.9357,1.9366,1.9439,1.9451,1.9458,1.94,1.9401,1.9401,1.9439,0,1.9493,1.9508,1.9486,1.9506,1.9509,1.9477,1.9485,1.9475,1.9461,1.9461,1.9445,1.9446,1.9423,1.9419,1.9426,1.9409,1.9428,1.9406,1.9401,1.9401,1.9402,1.9464,1.9478,1.9514,1.9443,1.9444,1.9445,0,1.9549,1.9544,1.9564,1.9544,1.9545,1.9553,1.9544,1.9546,1.9533,1.9522,1.9517,1.9495,1.9501,1.9475,1.9481,1.9467,1.9464,1.9455,1.9456,1.9452,1.9423,1.9458,1.9525,1.9529,1.9452,1.9451,1.9451,0,1.9602,1.9601,1.9612,1.9608,1.9586,1.9592,1.9583,1.9569,1.9566,1.9559,1.9557,1.9551,1.9547,1.9542,1.9518,1.9503,1.9526,1.9499,1.9515,1.9515,1.9518,1.9518,1.9582,1.9523,1.9523,1.9523,1.9522,0,1.9654,1.9666,1.9635,1.9641,1.9653,1.9627,1.9639,1.9627,1.9615,1.9617,1.959,1.9592,1.9563,1.9561,1.9543,1.9549,1.9548,1.9538,1.9532,1.9538,1.9539,1.9533,1.9529,1.9524,1.9524,1.9523,1.9523,0,1.9714,1.9694,1.9703,1.9682,1.9676,1.9686,1.9667,1.9671,1.9656,1.9658,1.9657,1.9633,1.9629,1.9606,1.9598,1.9585,1.9596,1.9588,1.96,1.9596,1.9611,1.9609,1.9671,1.9677,1.9617,1.9618,1.9618,0,1.9747,1.9755,1.9735,1.9734,1.9727,1.9727,1.9723,1.9699,1.9696,1.9682,1.9687,1.9681,1.9675,1.9671,1.9651,1.9644,1.9632,1.9655,1.9631,1.9636,1.9628,1.9627,1.9626,1.9659,1.966,1.966,1.9661,0,1.9805,1.9794,1.9792,1.9785,1.9782,1.9775,1.9767,1.9768,1.974,1.9738,1.9735,1.973,1.9721,1.9715,1.9704,1.9693,1.9671,1.9669,1.9671,1.9676,1.9682,1.9675,1.961,1.9667,1.9666,1.9666,1.9665,1.9665,1.985,1.9854,1.984,1.9837,1.9828,1.9821,1.9822,1.9807,1.9804,1.9795,1.978,1.9778,1.9763,1.9746,1.9737,1.9734,1.9721,1.9726,1.9727,1.9727,1.9729,1.9685,1.9732,1.9732,1.9732,1.9732,1.9731,0,1.9903,1.9893,1.989,1.9879,1.9876,1.9858,1.9847,1.9846,1.9844,1.9833,1.9827,1.9821,1.9815,1.9795,1.9786,1.9787,1.9777,1.9785,1.9783,1.978,1.9742,1.9739,1.9793,1.9793,1.9793,1.9793,1.9793,1.9793,1.9931,1.9937,1.9924,1.9925,1.9914,1.9912,1.9907,1.9899,1.989,1.9885,1.9879,1.9867,1.9851,1.9841,1.9833,1.9827,1.9824,1.9835,1.9826,1.9789,1.9783,1.9778,1.9774,1.9835,1.9835,1.9863,1.9864,1.9864]}]]